Regional Weather Roundup
Issued by NWS

Home | Current Version | Previous Version | Text Only | Print | Product List | Glossary Off
Versions: 1 2 3 4 5 6 7 8 9 10 11 12 13 14 15 16 17 18 19 20 21 22 23 24 25 26 27 28 29 30 31 32 33 34 35 36 37 38 39 40 41 42 43 44 45 46 47 48 49 50

000
ASUS43 KDTX 301310
RWRMI
MICHIGAN HOURLY REGIONAL WEATHER ROUNDUP
NATIONAL WEATHER SERVICE DETROIT/PONTIAC MI
900 AM EDT THU JUL 30 2015

NOTE: "FAIR" INDICATES FEW OR NO CLOUDS BELOW 12,000 FEET WITH NO
SIGNIFICANT WEATHER AND/OR OBSTRUCTION TO VISIBILITY.

MIZ047>049-052>055-059>063-066>070-074>076-081>083-301400-
SOUTHEAST LOWER MICHIGAN

CITY           SKY/WX    TMP DP  RH WIND       PRES   REMARKS
ADRIAN         SUNNY     70  62  76 NW6       30.01R
ALMA           SUNNY     70  61  71 W7        29.96R
ANN ARBOR      SUNNY     71  60  68 W9        29.98S
BAD AXE        SUNNY     69  61  76 W10       29.92R
DETROIT CITY   SUNNY     73  58  59 W8        29.96S
DETROIT        MOSUNNY   73  60  63 W10       29.98R
FLINT          SUNNY     74  59  59 W10       29.96R
GROSSE ILE     SUNNY     73  61  64 W8        29.97R
HILLSDALE      SUNNY     71  62  72 W9        30.02S
HOWELL         SUNNY     71  59  66 W9G17     29.98S

CITY           SKY/WX    TMP DP  RH WIND       PRES   REMARKS
JACKSON        SUNNY     70  61  73 W8        30.00S
LAMBERTVILLE   SUNNY     72  61  69 W6        30.00S
LANSING        SUNNY     72  59  63 MISG      29.98S
LAPEER         NOT AVBL
MASON          SUNNY     68  58  70 W7        29.99S
MONROE         SUNNY     71  62  74 W7        29.98S
MT. CLEMENS    SUNNY     74  61  63 W8        29.93R
PONTIAC        SUNNY     72  59  63 W12       29.96R
PORT HOPE        N/A     72  62  71 SW8       29.87S
PORT HURON     SUNNY     70  63  78 CALM      29.94R
TRI CITIES     SUNNY     73  59  61 W10       29.94R
YPSILANTI      SUNNY     76  61  59 W12       29.98S
$$
MIZ043>046-050>051-056>058-064>065-071>073-077>080-301400-
SOUTHWEST LOWER MICHIGAN

CITY           SKY/WX    TMP DP  RH WIND       PRES   REMARKS
BATTLE CREEK   SUNNY     73  61  65 W10       30.01S
BENTON HARBOR  SUNNY     73  62  68 W15       30.02R
BIG RAPIDS     SUNNY     71  56  59 W12       29.95R
COLDWATER      SUNNY     70  61  75 W8        30.02S
HOLLAND        SUNNY     74  60  61 W13G21    30.01R
GRAND RAPIDS   SUNNY     74  59  59 W10       29.98S
KALAMAZOO      SUNNY     73  60  63 NW9       30.01S
MARSHALL       SUNNY     71  62  72 W7        30.00S
MUSKEGON       SUNNY     73  56  54 W15G24    29.98R
$$
MIZ016>042-301400-
NORTHERN LOWER MICHIGAN

CITY           SKY/WX    TMP DP  RH WIND       PRES   REMARKS
ALPENA         SUNNY     74  57  55 W10G20    29.84R
BEAVER ISLAND  SUNNY     70  59  67 W16G22    29.83R
BELLAIRE       SUNNY     74  58  57 SW8       29.87S
CADILLAC       SUNNY     71  57  62 W12       29.93R
CHARLEVOIX     SUNNY     72  60  64 W22G29    29.87S
FRANKFORT      SUNNY     72  61  68 W12G18    29.91R
GAYLORD        SUNNY     71  57  61 W15G24    29.88R
GRAYLING       SUNNY     70  57  64 W8        29.89S
HARBOR SPRINGS SUNNY     72  61  68 W13G18    29.83S
HOUGHTON LAKE  SUNNY     71  57  61 W12G18    29.91R
MANISTEE       SUNNY     72  55  56 W15G23    29.93S
OSCODA         SUNNY     73  57  56 W14       29.86S
PELLSTON       SUNNY     73  58  59 W15G24    29.82S
TRAVERSE CITY  SUNNY     75  57  53 W10G24    29.87R
$$
MIZ007>008-015-301400-
EASTERN UPPER MICHIGAN

CITY           SKY/WX    TMP DP  RH WIND       PRES   REMARKS
KINROSS        SUNNY     70  55  60 W12G18    29.77S
MACKINAC ISLAN SUNNY     71  59  65 W17G25    29.79S
$$
MIZ004>006-011>014-085-301400-
CENTRAL UPPER MICHIGAN

CITY           SKY/WX    TMP DP  RH WIND       PRES   REMARKS
MANISTIQUE     SUNNY     72  55  56 W10G23    29.81S
ESCANABA       SUNNY     70  54  56 W13       29.83S
MENOMINEE      SUNNY     68  54  60 W7        29.89S
SAWYER-GWINN   SUNNY     70  52  52 W22G29    29.82R
$$
MIZ001>003-009>011-084-301400-
WESTERN UPPER MICHIGAN

CITY           SKY/WX    TMP DP  RH WIND       PRES   REMARKS
IRON MOUNTAIN  SUNNY     69  54  58 W10G23    29.87R
HOUGHTON       SUNNY     66  54  65 W23G37    29.80R
COPPER HARBOR    N/A     64  52  64 N16G33    29.78R
IRONWOOD       SUNNY     66  55  68 W16       29.90R
$$

ABBREVIATIONS USED IN REMARKS
   TC - TEMPERATURE IN CELSIUS
  WCI - WIND CHILL INDEX
   HX - HEAT INDEX
  VSB - VISIBILITY




USA.gov is the U.S. government's official web portal to all federal, state and local government web resources and services.